Year,Month,Day,Hour,Minute,Value (Times are PST for temperature in C)
2015,09,23,00,00,9.00
2015,09,23,00,01,9.00
2015,09,23,00,02,9.00
2015,09,23,00,03,9.00
2015,09,23,00,04,9.00
2015,09,23,00,05,8.90
2015,09,23,00,06,8.90
2015,09,23,00,07,8.80
2015,09,23,00,08,8.80
2015,09,23,00,09,8.80
2015,09,23,00,10,8.80
2015,09,23,00,11,8.80
2015,09,23,00,12,8.80
2015,09,23,00,13,8.80
2015,09,23,00,14,8.70
2015,09,23,00,15,8.70
2015,09,23,00,16,8.70
2015,09,23,00,17,8.70
2015,09,23,00,18,8.70
2015,09,23,00,19,8.70
2015,09,23,00,20,8.70
2015,09,23,00,21,8.70
2015,09,23,00,22,8.70
2015,09,23,00,23,8.70
2015,09,23,00,24,8.70
2015,09,23,00,25,8.70
2015,09,23,00,26,8.70
2015,09,23,00,27,8.70
2015,09,23,00,28,8.60
2015,09,23,00,29,8.60
2015,09,23,00,30,8.60
2015,09,23,00,31,8.60
2015,09,23,00,32,8.60
2015,09,23,00,33,8.60
2015,09,23,00,34,8.60
2015,09,23,00,35,8.60
2015,09,23,00,36,8.60
2015,09,23,00,37,8.60
2015,09,23,00,38,8.60
2015,09,23,00,39,8.60
2015,09,23,00,40,8.60
2015,09,23,00,41,8.70
2015,09,23,00,42,8.70
2015,09,23,00,43,8.70
2015,09,23,00,44,8.70
2015,09,23,00,45,8.70
2015,09,23,00,46,8.70
2015,09,23,00,47,8.60
2015,09,23,00,48,8.60
2015,09,23,00,49,8.60
2015,09,23,00,50,8.60
2015,09,23,00,51,8.60
2015,09,23,00,52,8.50
2015,09,23,00,53,8.50
2015,09,23,00,54,8.50
2015,09,23,00,55,8.50
2015,09,23,00,56,8.50
2015,09,23,00,57,8.50
2015,09,23,00,58,8.60
2015,09,23,00,59,8.60
2015,09,23,01,00,8.60
2015,09,23,01,01,8.60
2015,09,23,01,02,8.60
2015,09,23,01,03,8.60
2015,09,23,01,04,8.60
2015,09,23,01,05,8.60
2015,09,23,01,06,8.60
2015,09,23,01,07,8.60
2015,09,23,01,08,8.70
2015,09,23,01,09,8.70
2015,09,23,01,10,8.70
2015,09,23,01,11,8.70
2015,09,23,01,12,8.70
2015,09,23,01,13,8.70
2015,09,23,01,14,8.70
2015,09,23,01,15,8.60
2015,09,23,01,16,8.50
2015,09,23,01,17,8.50
2015,09,23,01,18,8.40
2015,09,23,01,19,8.40
2015,09,23,01,20,8.40
2015,09,23,01,21,8.40
2015,09,23,01,22,8.50
2015,09,23,01,23,8.50
2015,09,23,01,24,8.50
2015,09,23,01,25,8.50
2015,09,23,01,26,8.50
2015,09,23,01,27,8.50
2015,09,23,01,28,8.50
2015,09,23,01,29,8.60
2015,09,23,01,30,8.60
2015,09,23,01,31,8.60
2015,09,23,01,32,8.60
2015,09,23,01,33,8.60
2015,09,23,01,34,8.60
2015,09,23,01,35,8.50
2015,09,23,01,36,8.40
2015,09,23,01,37,8.40
2015,09,23,01,38,8.30
2015,09,23,01,39,8.30
2015,09,23,01,40,8.30
2015,09,23,01,41,8.30
2015,09,23,01,42,8.30
2015,09,23,01,43,8.30
2015,09,23,01,44,8.30
2015,09,23,01,45,8.30
2015,09,23,01,46,8.40
2015,09,23,01,47,8.40
2015,09,23,01,48,8.40
2015,09,23,01,49,8.40
2015,09,23,01,50,8.40
2015,09,23,01,51,8.40
2015,09,23,01,52,8.50
2015,09,23,01,53,8.50
2015,09,23,01,54,8.60
2015,09,23,01,55,8.60
2015,09,23,01,56,8.60
2015,09,23,01,57,8.70
2015,09,23,01,58,8.70
2015,09,23,01,59,8.80
2015,09,23,02,00,8.80
2015,09,23,02,01,8.80
2015,09,23,02,02,8.70
2015,09,23,02,03,8.70
2015,09,23,02,04,8.70
2015,09,23,02,05,8.60
2015,09,23,02,06,8.60
2015,09,23,02,07,8.60
2015,09,23,02,08,8.60
2015,09,23,02,09,8.60
2015,09,23,02,10,8.60
2015,09,23,02,11,8.60
2015,09,23,02,12,8.60
2015,09,23,02,13,8.60
2015,09,23,02,14,8.60
2015,09,23,02,15,8.70
2015,09,23,02,16,8.70
2015,09,23,02,17,8.70
2015,09,23,02,18,8.70
2015,09,23,02,19,8.70
2015,09,23,02,20,8.70
2015,09,23,02,21,8.70
2015,09,23,02,22,8.70
2015,09,23,02,23,8.70
2015,09,23,02,24,8.60
2015,09,23,02,25,8.60
2015,09,23,02,26,8.60
2015,09,23,02,27,8.60
2015,09,23,02,28,8.60
2015,09,23,02,29,8.70
2015,09,23,02,30,8.70
2015,09,23,02,31,8.80
2015,09,23,02,32,8.80
2015,09,23,02,33,8.80
2015,09,23,02,34,8.80
2015,09,23,02,35,8.80
2015,09,23,02,36,8.80
2015,09,23,02,37,8.80
2015,09,23,02,38,8.80
2015,09,23,02,39,8.90
2015,09,23,02,40,8.90
2015,09,23,02,41,8.90
2015,09,23,02,42,9.00
2015,09,23,02,43,9.00
2015,09,23,02,44,9.10
2015,09,23,02,45,9.10
2015,09,23,02,46,9.00
2015,09,23,02,47,9.00
2015,09,23,02,48,8.90
2015,09,23,02,49,8.90
2015,09,23,02,50,8.80
2015,09,23,02,51,8.80
2015,09,23,02,52,8.80
2015,09,23,02,53,8.80
2015,09,23,02,54,8.80
2015,09,23,02,55,8.80
2015,09,23,02,56,8.80
2015,09,23,02,57,8.80
2015,09,23,02,58,8.80
2015,09,23,02,59,8.80
2015,09,23,03,00,8.80
2015,09,23,03,01,8.80
2015,09,23,03,02,8.80
2015,09,23,03,03,8.90
2015,09,23,03,04,8.90
2015,09,23,03,05,8.90
2015,09,23,03,06,8.90
2015,09,23,03,07,8.90
2015,09,23,03,08,8.90
2015,09,23,03,09,8.80
2015,09,23,03,10,8.80
2015,09,23,03,11,8.80
2015,09,23,03,12,8.80
2015,09,23,03,13,8.70
2015,09,23,03,14,8.70
2015,09,23,03,15,8.70
2015,09,23,03,16,8.70
2015,09,23,03,17,8.70
2015,09,23,03,18,8.70
2015,09,23,03,19,8.70
2015,09,23,03,20,8.70
2015,09,23,03,21,8.70
2015,09,23,03,22,8.80
2015,09,23,03,23,8.80
2015,09,23,03,24,8.80
2015,09,23,03,25,8.80
2015,09,23,03,26,8.80
2015,09,23,03,27,8.80
2015,09,23,03,28,8.80
2015,09,23,03,29,8.80
2015,09,23,03,30,8.70
2015,09,23,03,31,8.70
2015,09,23,03,32,8.60
2015,09,23,03,33,8.60
2015,09,23,03,34,8.60
2015,09,23,03,35,8.50
2015,09,23,03,36,8.60
2015,09,23,03,37,8.60
2015,09,23,03,38,8.60
2015,09,23,03,39,8.60
2015,09,23,03,40,8.60
2015,09,23,03,41,8.60
2015,09,23,03,42,8.50
2015,09,23,03,43,8.50
2015,09,23,03,44,8.50
2015,09,23,03,45,8.50
2015,09,23,03,46,8.50
2015,09,23,03,47,8.50
2015,09,23,03,48,8.50
2015,09,23,03,49,8.50
2015,09,23,03,50,8.50
2015,09,23,03,51,8.50
2015,09,23,03,52,8.50
2015,09,23,03,53,8.50
2015,09,23,03,54,8.40
2015,09,23,03,55,8.40
2015,09,23,03,56,8.40
2015,09,23,03,57,8.40
2015,09,23,03,58,8.40
2015,09,23,03,59,8.40
2015,09,23,04,00,8.40
2015,09,23,04,01,8.40
2015,09,23,04,02,8.40
2015,09,23,04,03,8.40
2015,09,23,04,04,8.40
2015,09,23,04,05,8.40
2015,09,23,04,06,8.40
2015,09,23,04,07,8.40
2015,09,23,04,08,8.30
2015,09,23,04,09,8.30
2015,09,23,04,10,8.30
2015,09,23,04,11,8.30
2015,09,23,04,12,8.30
2015,09,23,04,13,8.20
2015,09,23,04,14,8.20
2015,09,23,04,15,8.20
2015,09,23,04,16,8.20
2015,09,23,04,17,8.20
2015,09,23,04,18,8.20
2015,09,23,04,19,8.20
2015,09,23,04,20,8.20
2015,09,23,04,21,8.20
2015,09,23,04,22,8.20
2015,09,23,04,23,8.20
2015,09,23,04,24,8.30
2015,09,23,04,25,8.30
2015,09,23,04,26,8.30
2015,09,23,04,27,8.30
2015,09,23,04,28,8.40
2015,09,23,04,29,8.40
2015,09,23,04,30,8.40
2015,09,23,04,31,8.30
2015,09,23,04,32,8.20
2015,09,23,04,33,8.10
2015,09,23,04,34,8.10
2015,09,23,04,35,8.10
2015,09,23,04,36,8.10
2015,09,23,04,37,8.10
2015,09,23,04,38,8.10
2015,09,23,04,39,8.10
2015,09,23,04,40,8.10
2015,09,23,04,41,8.10
2015,09,23,04,42,8.10
2015,09,23,04,43,8.10
2015,09,23,04,44,8.10
2015,09,23,04,45,8.10
2015,09,23,04,46,8.10
2015,09,23,04,47,8.10
2015,09,23,04,48,8.10
2015,09,23,04,49,8.10
2015,09,23,04,50,8.10
2015,09,23,04,51,8.10
2015,09,23,04,52,8.10
2015,09,23,04,53,8.00
2015,09,23,04,54,7.90
2015,09,23,04,55,8.00
2015,09,23,04,56,8.00
2015,09,23,04,57,8.10
2015,09,23,04,58,8.20
2015,09,23,04,59,8.20
2015,09,23,05,00,8.20
2015,09,23,05,01,8.20
2015,09,23,05,02,8.20
2015,09,23,05,03,8.20
2015,09,23,05,04,8.20
2015,09,23,05,05,8.20
2015,09,23,05,06,8.20
2015,09,23,05,07,8.10
2015,09,23,05,08,8.10
2015,09,23,05,09,8.10
2015,09,23,05,10,8.10
2015,09,23,05,11,8.00
2015,09,23,05,12,8.00
2015,09,23,05,13,8.00
2015,09,23,05,14,7.90
2015,09,23,05,15,7.90
2015,09,23,05,16,7.90
2015,09,23,05,17,7.90
2015,09,23,05,18,7.90
2015,09,23,05,19,7.90
2015,09,23,05,20,7.90
2015,09,23,05,21,8.00
2015,09,23,05,22,8.00
2015,09,23,05,23,8.10
2015,09,23,05,24,8.10
2015,09,23,05,25,8.10
2015,09,23,05,26,8.20
2015,09,23,05,27,8.20
2015,09,23,05,28,8.20
2015,09,23,05,29,8.20
2015,09,23,05,30,8.20
2015,09,23,05,31,8.20
2015,09,23,05,32,8.20
2015,09,23,05,33,8.20
2015,09,23,05,34,8.20
2015,09,23,05,35,8.10
2015,09,23,05,36,8.00
2015,09,23,05,37,8.00
2015,09,23,05,38,7.90
2015,09,23,05,39,7.90
2015,09,23,05,40,7.90
2015,09,23,05,41,7.90
2015,09,23,05,42,7.90
2015,09,23,05,43,7.90
2015,09,23,05,44,8.00
2015,09,23,05,45,8.00
2015,09,23,05,46,8.00
2015,09,23,05,47,8.00
2015,09,23,05,48,8.10
2015,09,23,05,49,8.10
2015,09,23,05,50,8.10
2015,09,23,05,51,8.00
2015,09,23,05,52,8.00
2015,09,23,05,53,7.90
2015,09,23,05,54,7.80
2015,09,23,05,55,7.80
2015,09,23,05,56,7.70
2015,09,23,05,57,7.70
2015,09,23,05,58,7.70
2015,09,23,05,59,7.60
2015,09,23,06,00,7.60
2015,09,23,06,01,7.60
2015,09,23,06,02,7.60
2015,09,23,06,03,7.60
2015,09,23,06,04,7.50
2015,09,23,06,05,7.50
2015,09,23,06,06,7.50
2015,09,23,06,07,7.40
2015,09,23,06,08,7.40
2015,09,23,06,09,7.40
2015,09,23,06,10,7.40
2015,09,23,06,11,7.40
2015,09,23,06,12,7.40
2015,09,23,06,13,7.40
2015,09,23,06,14,7.40
2015,09,23,06,15,7.40
2015,09,23,06,16,7.40
2015,09,23,06,17,7.40
2015,09,23,06,18,7.50
2015,09,23,06,19,7.50
2015,09,23,06,20,7.50
2015,09,23,06,21,7.50
2015,09,23,06,22,7.60
2015,09,23,06,23,7.70
2015,09,23,06,24,7.70
2015,09,23,06,25,7.70
2015,09,23,06,26,7.70
2015,09,23,06,27,7.70
2015,09,23,06,28,7.80
2015,09,23,06,29,7.80
2015,09,23,06,30,7.80
2015,09,23,06,31,7.80
2015,09,23,06,32,7.80
2015,09,23,06,33,7.80
2015,09,23,06,34,7.80
2015,09,23,06,35,7.80
2015,09,23,06,36,7.80
2015,09,23,06,37,7.80
2015,09,23,06,38,7.90
2015,09,23,06,39,7.90
2015,09,23,06,40,8.00
2015,09,23,06,41,8.00
2015,09,23,06,42,8.10
2015,09,23,06,43,8.10
2015,09,23,06,44,8.10
2015,09,23,06,45,8.10
2015,09,23,06,46,8.10
2015,09,23,06,47,8.10
2015,09,23,06,48,8.10
2015,09,23,06,49,8.00
2015,09,23,06,50,8.00
2015,09,23,06,51,8.10
2015,09,23,06,52,8.10
2015,09,23,06,53,8.10
2015,09,23,06,54,8.20
2015,09,23,06,55,8.20
2015,09,23,06,56,8.20
2015,09,23,06,57,8.30
2015,09,23,06,58,8.30
2015,09,23,06,59,8.40
2015,09,23,07,00,8.40
2015,09,23,07,01,8.40
2015,09,23,07,02,8.40
2015,09,23,07,03,8.40
2015,09,23,07,04,8.40
2015,09,23,07,05,8.40
2015,09,23,07,06,8.30
2015,09,23,07,07,8.30
2015,09,23,07,08,8.20
2015,09,23,07,09,8.20
2015,09,23,07,10,8.20
2015,09,23,07,11,8.30
2015,09,23,07,12,8.30
2015,09,23,07,13,8.30
2015,09,23,07,14,8.30
2015,09,23,07,15,8.30
2015,09,23,07,16,8.30
2015,09,23,07,17,8.30
2015,09,23,07,18,8.30
2015,09,23,07,19,8.30
2015,09,23,07,20,8.40
2015,09,23,07,21,8.40
2015,09,23,07,22,8.40
2015,09,23,07,23,8.40
2015,09,23,07,24,8.30
2015,09,23,07,25,8.30
2015,09,23,07,26,8.30
2015,09,23,07,27,8.40
2015,09,23,07,28,8.40
2015,09,23,07,29,8.40
2015,09,23,07,30,8.40
2015,09,23,07,31,8.40
2015,09,23,07,32,8.30
2015,09,23,07,33,8.30
2015,09,23,07,34,8.40
2015,09,23,07,35,8.40
2015,09,23,07,36,8.40
2015,09,23,07,37,8.40
2015,09,23,07,38,8.50
2015,09,23,07,39,8.50
2015,09,23,07,40,8.60
2015,09,23,07,41,8.60
2015,09,23,07,42,8.60
2015,09,23,07,43,8.70
2015,09,23,07,44,8.70
2015,09,23,07,45,8.80
2015,09,23,07,46,8.80
2015,09,23,07,47,8.90
2015,09,23,07,48,8.90
2015,09,23,07,49,8.90
2015,09,23,07,50,8.90
2015,09,23,07,51,8.80
2015,09,23,07,52,8.90
2015,09,23,07,53,8.90
2015,09,23,07,54,8.90
2015,09,23,07,55,9.00
2015,09,23,07,56,9.10
2015,09,23,07,57,9.10
2015,09,23,07,58,9.20
2015,09,23,07,59,9.20
2015,09,23,08,00,9.30
2015,09,23,08,01,9.30
2015,09,23,08,02,9.30
2015,09,23,08,03,9.30
2015,09,23,08,04,9.20
2015,09,23,08,05,9.10
2015,09,23,08,06,9.10
2015,09,23,08,07,9.10
2015,09,23,08,08,9.00
2015,09,23,08,09,9.00
2015,09,23,08,10,9.00
2015,09,23,08,11,9.10
2015,09,23,08,12,9.10
2015,09,23,08,13,9.20
2015,09,23,08,14,9.20
2015,09,23,08,15,9.30
2015,09,23,08,16,9.30
2015,09,23,08,17,9.30
2015,09,23,08,18,9.40
2015,09,23,08,19,9.50
2015,09,23,08,20,9.50
2015,09,23,08,21,9.50
2015,09,23,08,22,9.60
2015,09,23,08,23,9.60
2015,09,23,08,24,9.70
2015,09,23,08,25,9.70
2015,09,23,08,26,9.80
2015,09,23,08,27,9.80
2015,09,23,08,28,9.90
2015,09,23,08,29,9.90
2015,09,23,08,30,9.90
2015,09,23,08,31,9.90
2015,09,23,08,32,10.20
2015,09,23,08,33,10.20
2015,09,23,08,34,10.30
2015,09,23,08,35,10.30
2015,09,23,08,36,10.40
2015,09,23,08,37,10.40
2015,09,23,08,38,10.50
2015,09,23,08,39,10.50
2015,09,23,08,40,10.60
2015,09,23,08,41,10.60
2015,09,23,08,42,10.60
2015,09,23,08,43,10.70
2015,09,23,08,44,10.70
2015,09,23,08,45,10.80
2015,09,23,08,46,10.80
2015,09,23,08,47,10.90
2015,09,23,08,48,10.90
2015,09,23,08,49,11.00
2015,09,23,08,50,11.10
2015,09,23,08,51,11.10
2015,09,23,08,52,11.20
2015,09,23,08,53,11.30
2015,09,23,08,54,11.40
2015,09,23,08,55,11.50
2015,09,23,08,56,11.60
2015,09,23,08,57,11.70
2015,09,23,08,58,11.80
2015,09,23,08,59,11.90
2015,09,23,09,00,11.90
2015,09,23,09,01,12.00
2015,09,23,09,02,12.00
2015,09,23,09,03,12.10
2015,09,23,09,04,12.10
2015,09,23,09,05,12.20
2015,09,23,09,06,12.20
2015,09,23,09,07,12.20
2015,09,23,09,08,12.20
2015,09,23,09,09,12.20
2015,09,23,09,10,12.20
2015,09,23,09,11,12.20
2015,09,23,09,12,12.30
2015,09,23,09,13,12.30
2015,09,23,09,14,12.30
2015,09,23,09,15,12.40
2015,09,23,09,16,12.50
2015,09,23,09,17,12.60
2015,09,23,09,18,12.70
2015,09,23,09,19,12.70
2015,09,23,09,20,12.80
2015,09,23,09,21,12.80
2015,09,23,09,22,12.80
2015,09,23,09,23,12.90
2015,09,23,09,24,12.90
2015,09,23,09,25,13.00
2015,09,23,09,26,13.10
2015,09,23,09,27,13.10
2015,09,23,09,28,13.20
2015,09,23,09,29,13.20
2015,09,23,09,30,13.20
2015,09,23,09,31,13.30
2015,09,23,09,32,13.30
2015,09,23,09,33,13.30
2015,09,23,09,34,13.30
2015,09,23,09,35,13.30
2015,09,23,09,36,13.30
2015,09,23,09,37,13.30
2015,09,23,09,38,13.20
2015,09,23,09,39,13.20
2015,09,23,09,40,13.10
2015,09,23,09,41,13.10
2015,09,23,09,42,13.10
2015,09,23,09,43,13.10
2015,09,23,09,44,13.10
2015,09,23,09,45,13.10
2015,09,23,09,46,13.10
2015,09,23,09,47,13.20
2015,09,23,09,48,13.20
2015,09,23,09,49,13.20
2015,09,23,09,50,13.20
2015,09,23,09,51,13.30
2015,09,23,09,52,13.30
2015,09,23,09,53,13.40
2015,09,23,09,54,13.40
2015,09,23,09,55,13.40
2015,09,23,09,56,13.50
2015,09,23,09,57,13.50
2015,09,23,09,58,13.60
2015,09,23,09,59,13.70
2015,09,23,10,00,13.70
2015,09,23,10,01,13.80
2015,09,23,10,02,13.80
2015,09,23,10,03,13.70
2015,09,23,10,04,13.70
2015,09,23,10,05,13.70
2015,09,23,10,06,13.70
2015,09,23,10,07,13.70
2015,09,23,10,08,13.60
2015,09,23,10,09,13.60
2015,09,23,10,10,13.60
2015,09,23,10,11,13.60
2015,09,23,10,12,13.60
2015,09,23,10,13,13.60
2015,09,23,10,14,13.60
2015,09,23,10,15,13.60
2015,09,23,10,16,13.60
2015,09,23,10,17,13.60
2015,09,23,10,18,13.60
2015,09,23,10,19,13.60
2015,09,23,10,20,13.60
2015,09,23,10,21,13.50
2015,09,23,10,22,13.50
2015,09,23,10,23,13.50
2015,09,23,10,24,13.50
2015,09,23,10,25,13.40
2015,09,23,10,26,13.40
2015,09,23,10,27,13.50
2015,09,23,10,28,13.50
2015,09,23,10,29,13.60
2015,09,23,10,30,13.60
2015,09,23,10,31,13.60
2015,09,23,10,32,13.60
2015,09,23,10,33,13.50
2015,09,23,10,34,13.50
2015,09,23,10,35,13.40
2015,09,23,10,36,13.40
2015,09,23,10,37,13.50
2015,09,23,10,38,13.60
2015,09,23,10,39,13.60
2015,09,23,10,40,13.70
2015,09,23,10,41,13.80
2015,09,23,10,42,13.80
2015,09,23,10,43,13.80
2015,09,23,10,44,13.80
2015,09,23,10,45,13.80
2015,09,23,10,46,13.70
2015,09,23,10,47,13.60
2015,09,23,10,48,13.60
2015,09,23,10,49,13.60
2015,09,23,10,50,13.60
2015,09,23,10,51,13.60
2015,09,23,10,52,13.70
2015,09,23,10,53,13.70
2015,09,23,10,54,13.70
2015,09,23,10,55,13.70
2015,09,23,10,56,13.80
2015,09,23,10,57,13.80
2015,09,23,10,58,13.90
2015,09,23,10,59,13.90
2015,09,23,11,00,13.90
2015,09,23,11,01,14.00
2015,09,23,11,02,14.00
2015,09,23,11,03,14.00
2015,09,23,11,04,13.90
2015,09,23,11,05,13.90
2015,09,23,11,06,13.90
2015,09,23,11,07,13.90
2015,09,23,11,08,13.90
2015,09,23,11,09,13.80
2015,09,23,11,10,13.80
2015,09,23,11,11,13.80
2015,09,23,11,12,13.80
2015,09,23,11,13,13.70
2015,09,23,11,14,13.70
2015,09,23,11,15,13.70
2015,09,23,11,16,13.70
2015,09,23,11,17,13.80
2015,09,23,11,18,13.80
2015,09,23,11,19,13.70
2015,09,23,11,20,13.70
2015,09,23,11,21,13.70
2015,09,23,11,22,13.70
2015,09,23,11,23,13.70
2015,09,23,11,24,13.70
2015,09,23,11,25,13.60
2015,09,23,11,26,13.60
2015,09,23,11,27,13.70
2015,09,23,11,28,13.70
2015,09,23,11,29,13.80
2015,09,23,11,30,13.90
2015,09,23,11,31,13.90
2015,09,23,11,32,14.00
2015,09,23,11,33,14.00
2015,09,23,11,34,13.90
2015,09,23,11,35,13.80
2015,09,23,11,36,13.70
2015,09,23,11,37,13.70
2015,09,23,11,38,13.70
2015,09,23,11,39,13.70
2015,09,23,11,40,13.70
2015,09,23,11,41,13.70
2015,09,23,11,42,13.70
2015,09,23,11,43,13.80
2015,09,23,11,44,13.80
2015,09,23,11,45,13.70
2015,09,23,11,46,13.70
2015,09,23,11,47,13.70
2015,09,23,11,48,13.70
2015,09,23,11,49,13.60
2015,09,23,11,50,13.60
2015,09,23,11,51,13.60
2015,09,23,11,52,13.70
2015,09,23,11,53,13.70
2015,09,23,11,54,13.80
2015,09,23,11,55,13.80
2015,09,23,11,56,13.90
2015,09,23,11,57,13.90
2015,09,23,11,58,13.90
2015,09,23,11,59,13.90
2015,09,23,12,00,13.90
2015,09,23,12,01,13.80
2015,09,23,12,02,13.80
2015,09,23,12,03,13.90
2015,09,23,12,04,14.00
2015,09,23,12,05,14.00
2015,09,23,12,06,14.00
2015,09,23,12,07,14.00
2015,09,23,12,08,14.00
2015,09,23,12,09,13.90
2015,09,23,12,10,14.00
2015,09,23,12,11,14.10
2015,09,23,12,12,14.20
2015,09,23,12,13,14.40
2015,09,23,12,14,14.40
2015,09,23,12,15,14.40
2015,09,23,12,16,14.40
2015,09,23,12,17,14.50
2015,09,23,12,18,14.50
2015,09,23,12,19,14.50
2015,09,23,12,20,14.50
2015,09,23,12,21,14.50
2015,09,23,12,22,14.60
2015,09,23,12,23,14.60
2015,09,23,12,24,14.60
2015,09,23,12,25,14.70
2015,09,23,12,26,14.70
2015,09,23,12,27,14.70
2015,09,23,12,28,14.80
2015,09,23,12,29,14.80
2015,09,23,12,30,14.80
2015,09,23,12,31,14.80
2015,09,23,12,32,14.80
2015,09,23,12,33,15.00
2015,09,23,12,34,15.10
2015,09,23,12,35,15.20
2015,09,23,12,36,15.20
2015,09,23,12,37,15.30
2015,09,23,12,38,15.40
2015,09,23,12,39,15.40
2015,09,23,12,40,15.40
2015,09,23,12,41,15.40
2015,09,23,12,42,15.50
2015,09,23,12,43,15.50
2015,09,23,12,44,15.50
2015,09,23,12,45,15.60
2015,09,23,12,46,15.60
2015,09,23,12,47,15.60
2015,09,23,12,48,15.60
2015,09,23,12,49,15.60
2015,09,23,12,50,15.60
2015,09,23,12,51,15.60
2015,09,23,12,52,15.60
2015,09,23,12,53,15.60
2015,09,23,12,54,15.60
2015,09,23,12,55,15.60
2015,09,23,12,56,15.60
2015,09,23,12,57,15.70
2015,09,23,12,58,15.80
2015,09,23,12,59,15.90
2015,09,23,13,00,16.00
2015,09,23,13,01,16.10
2015,09,23,13,02,16.10
2015,09,23,13,03,16.10
2015,09,23,13,04,16.00
2015,09,23,13,05,15.90
2015,09,23,13,06,15.90
2015,09,23,13,07,16.00
2015,09,23,13,08,16.00
2015,09,23,13,09,16.10
2015,09,23,13,10,16.10
2015,09,23,13,11,16.10
2015,09,23,13,12,16.20
2015,09,23,13,13,16.30
2015,09,23,13,14,16.50
2015,09,23,13,15,16.50
2015,09,23,13,16,16.50
2015,09,23,13,17,16.50
2015,09,23,13,18,16.50
2015,09,23,13,19,16.50
2015,09,23,13,20,16.40
2015,09,23,13,21,16.40
2015,09,23,13,22,16.40
2015,09,23,13,23,16.40
2015,09,23,13,24,16.40
2015,09,23,13,25,16.40
2015,09,23,13,26,16.50
2015,09,23,13,27,16.60
2015,09,23,13,28,16.60
2015,09,23,13,29,16.70
2015,09,23,13,30,16.70
2015,09,23,13,31,16.60
2015,09,23,13,32,16.60
2015,09,23,13,33,16.60
2015,09,23,13,34,16.50
2015,09,23,13,35,16.60
2015,09,23,13,36,16.50
2015,09,23,13,37,16.50
2015,09,23,13,38,16.60
2015,09,23,13,39,16.60
2015,09,23,13,40,16.60
2015,09,23,13,41,16.70
2015,09,23,13,42,16.80
2015,09,23,13,43,16.80
2015,09,23,13,44,16.80
2015,09,23,13,45,16.80
2015,09,23,13,46,16.80
2015,09,23,13,47,16.90
2015,09,23,13,48,16.90
2015,09,23,13,49,16.90
2015,09,23,13,50,17.00
2015,09,23,13,51,17.10
2015,09,23,13,52,17.10
2015,09,23,13,53,17.20
2015,09,23,13,54,17.30
2015,09,23,13,55,17.20
2015,09,23,13,56,17.10
2015,09,23,13,57,17.00
2015,09,23,13,58,16.90
2015,09,23,13,59,16.90
2015,09,23,14,00,16.80
2015,09,23,14,01,16.80
2015,09,23,14,02,16.80
2015,09,23,14,03,16.90
2015,09,23,14,04,16.90
2015,09,23,14,05,16.90
2015,09,23,14,06,16.90
2015,09,23,14,07,17.00
2015,09,23,14,08,17.10
2015,09,23,14,09,17.10
2015,09,23,14,10,17.00
2015,09,23,14,11,17.00
2015,09,23,14,12,17.00
2015,09,23,14,13,17.10
2015,09,23,14,14,17.10
2015,09,23,14,15,17.20
2015,09,23,14,16,17.20
2015,09,23,14,17,17.20
2015,09,23,14,18,17.10
2015,09,23,14,19,17.10
2015,09,23,14,20,17.00
2015,09,23,14,21,17.00
2015,09,23,14,22,16.90
2015,09,23,14,23,16.90
2015,09,23,14,24,16.90
2015,09,23,14,25,17.00
2015,09,23,14,26,17.00
2015,09,23,14,27,17.10
2015,09,23,14,28,17.10
2015,09,23,14,29,17.10
2015,09,23,14,30,17.20
2015,09,23,14,31,17.30
2015,09,23,14,32,17.30
2015,09,23,14,33,17.40
2015,09,23,14,34,17.30
2015,09,23,14,35,17.30
2015,09,23,14,36,17.20
2015,09,23,14,37,17.20
2015,09,23,14,38,17.20
2015,09,23,14,39,17.20
2015,09,23,14,40,17.30
2015,09,23,14,41,17.30
2015,09,23,14,42,17.30
2015,09,23,14,43,17.30
2015,09,23,14,44,17.40
2015,09,23,14,45,17.30
2015,09,23,14,46,17.30
2015,09,23,14,47,17.30
2015,09,23,14,48,17.30
2015,09,23,14,49,17.30
2015,09,23,14,50,17.30
2015,09,23,14,51,17.40
2015,09,23,14,52,17.50
2015,09,23,14,53,17.50
2015,09,23,14,54,17.50
2015,09,23,14,55,17.40
2015,09,23,14,56,17.40
2015,09,23,14,57,17.40
2015,09,23,14,58,17.30
2015,09,23,14,59,17.20
2015,09,23,15,00,17.20
2015,09,23,15,01,17.20
2015,09,23,15,02,17.20
2015,09,23,15,03,17.20
2015,09,23,15,04,17.20
2015,09,23,15,05,17.20
2015,09,23,15,06,17.20
2015,09,23,15,07,17.30
2015,09,23,15,08,17.30
2015,09,23,15,09,17.20
2015,09,23,15,10,17.30
2015,09,23,15,11,17.30
2015,09,23,15,12,17.30
2015,09,23,15,13,17.30
2015,09,23,15,14,17.30
2015,09,23,15,15,17.30
2015,09,23,15,16,17.30
2015,09,23,15,17,17.40
2015,09,23,15,18,17.40
2015,09,23,15,19,17.40
2015,09,23,15,20,17.40
2015,09,23,15,21,17.40
2015,09,23,15,22,17.40
2015,09,23,15,23,17.40
2015,09,23,15,24,17.40
2015,09,23,15,25,17.50
2015,09,23,15,26,17.50
2015,09,23,15,27,17.50
2015,09,23,15,28,17.50
2015,09,23,15,29,17.60
2015,09,23,15,30,17.60
2015,09,23,15,31,17.60
2015,09,23,15,32,17.70
2015,09,23,15,33,17.70
2015,09,23,15,34,17.70
2015,09,23,15,35,17.70
2015,09,23,15,36,17.70
2015,09,23,15,37,17.70
2015,09,23,15,38,17.70
2015,09,23,15,39,17.70
2015,09,23,15,40,17.70
2015,09,23,15,41,17.70
2015,09,23,15,42,17.80
2015,09,23,15,43,17.80
2015,09,23,15,44,17.80
2015,09,23,15,45,17.80
2015,09,23,15,46,17.80
2015,09,23,15,47,17.80
2015,09,23,15,48,17.80
2015,09,23,15,49,17.80
2015,09,23,15,50,17.80
2015,09,23,15,51,17.80
2015,09,23,15,52,17.80
2015,09,23,15,53,17.80
2015,09,23,15,54,17.80
2015,09,23,15,55,17.80
2015,09,23,15,56,17.80
2015,09,23,15,57,17.80
2015,09,23,15,58,17.70
2015,09,23,15,59,17.70
2015,09,23,16,00,17.60
2015,09,23,16,01,17.60
2015,09,23,16,02,17.60
2015,09,23,16,03,17.50
2015,09,23,16,04,17.50
2015,09,23,16,05,17.50
2015,09,23,16,06,17.40
2015,09,23,16,07,17.40
2015,09,23,16,08,17.40
2015,09,23,16,09,17.40
2015,09,23,16,10,17.30
2015,09,23,16,11,17.30
2015,09,23,16,12,17.20
2015,09,23,16,13,17.20
2015,09,23,16,14,17.20
2015,09,23,16,15,17.10
2015,09,23,16,16,17.10
2015,09,23,16,17,17.10
2015,09,23,16,18,17.10
2015,09,23,16,19,17.10
2015,09,23,16,20,17.10
2015,09,23,16,21,17.10
2015,09,23,16,22,17.10
2015,09,23,16,23,17.20
2015,09,23,16,24,17.20
2015,09,23,16,25,17.30
2015,09,23,16,26,17.30
2015,09,23,16,27,17.30
2015,09,23,16,28,17.30
2015,09,23,16,29,17.30
2015,09,23,16,30,17.30
2015,09,23,16,31,17.40
2015,09,23,16,32,17.40
2015,09,23,16,33,17.40
2015,09,23,16,34,17.40
2015,09,23,16,35,17.40
2015,09,23,16,36,17.50
2015,09,23,16,37,17.50
2015,09,23,16,38,17.50
2015,09,23,16,39,17.50
2015,09,23,16,40,17.50
2015,09,23,16,41,17.50
2015,09,23,16,42,17.50
2015,09,23,16,43,17.50
2015,09,23,16,44,17.50
2015,09,23,16,45,17.40
2015,09,23,16,46,17.40
2015,09,23,16,47,17.40
2015,09,23,16,48,17.40
2015,09,23,16,49,17.50
2015,09,23,16,50,17.50
2015,09,23,16,51,17.50
2015,09,23,16,52,17.50
2015,09,23,16,53,17.50
2015,09,23,16,54,17.40
2015,09,23,16,55,17.40
2015,09,23,16,56,17.40
2015,09,23,16,57,17.40
2015,09,23,16,58,17.40
2015,09,23,16,59,17.40
2015,09,23,17,00,17.40
2015,09,23,17,01,17.30
2015,09,23,17,02,17.30
2015,09,23,17,03,17.30
2015,09,23,17,04,17.40
2015,09,23,17,05,17.40
2015,09,23,17,06,17.40
2015,09,23,17,07,17.40
2015,09,23,17,08,17.30
2015,09,23,17,09,17.30
2015,09,23,17,10,17.30
2015,09,23,17,11,17.30
2015,09,23,17,12,17.20
2015,09,23,17,13,17.20
2015,09,23,17,14,17.20
2015,09,23,17,15,17.10
2015,09,23,17,16,17.10
2015,09,23,17,17,17.10
2015,09,23,17,18,17.00
2015,09,23,17,19,17.00
2015,09,23,17,20,17.00
2015,09,23,17,21,17.00
2015,09,23,17,22,17.00
2015,09,23,17,23,17.00
2015,09,23,17,24,16.90
2015,09,23,17,25,16.90
2015,09,23,17,26,16.90
2015,09,23,17,27,17.00
2015,09,23,17,28,17.00
2015,09,23,17,29,17.00
2015,09,23,17,30,17.00
2015,09,23,17,31,17.00
2015,09,23,17,32,16.90
2015,09,23,17,33,16.90
2015,09,23,17,34,16.80
2015,09,23,17,35,16.70
2015,09,23,17,36,16.70
2015,09,23,17,37,16.60
2015,09,23,17,38,16.50
2015,09,23,17,39,16.50
2015,09,23,17,40,16.40
2015,09,23,17,41,16.40